Location: Carr Mill
(33.2054°N, 85.9439°W)
Time: 20:43:27
(UTC+00:00)

STARLINK-2750 - Pass Details

Date: 24 June 2021
Orbit: 348 x 351 km, 53.0° (Epoch: 03 August)

Event Time Altitude Azimuth Distance (km) Brightness Sun altitude
Exits shadow 09:30:03 - 288° (WNW) 1,383 5.4 -12.3°
Reaches altitude 10° 09:30:22 10° 293° (WNW) 1,313 5.3 -12.2°
Maximum altitude 09:31:54 13° 325° (NW) 1,141 5.3 -12.0°
Drops below altitude 10° 09:33:26 10° 357° (N) 1,317 6.1 -11.7°
Sets 09:36:13 0° 26° (NNE) 2,163 7.9 -11.3°
